RH
32 75 98 100 100 74 41 26 26 34 62 52 52 81 78 67 77 70 29 39 43 37 28 29 38 48 55 42 47 50 39 36 30 63 31 36 22 45 59 91 100 100 99
92 95 84 96 97 71 56 24 32 49 76 77 81 97 87 73 60 40 44 59 48 44 41 28 26 32 42 50 27 36 45 41 32 22 96 49 46 58 63 97 90 97 100
100 96 89 74 80 75 38 26 36 33 38 61 84 97 96 88 76 68 65 66 63 57 56 37 33 53 49 46 32 13 10 11 69 61 99 100 98 95 89 83 88 99 99
100 91 63 65 75 62 30 26 38 54 57 60 64 70 77 85 94 90 65 60 51 42 41 37 36 37 28 15 15 11 10 9 14 32 52 42 76 36 93 93 98 99 100
95 96 59 58 62 49 38 27 30 44 53 55 56 61 68 67 70 66 44 36 46 50 34 21 15 13 26 14 11 12 12 11 11 11 14 13 15 17 75 73 94 98 97
12 99 86 70 68 77 44 39 44 41 40 50 59 61 63 61 57 55 65 64 85 76 44 22 17 13 10 10 11 12 14 18 17 17 18 20 19 22 28 43 74 89 99
5 73 92 81 77 78 88 64 54 66 73 72 67 78 71 69 70 63 66 68 71 74 76 80 76 48 17 19 37 79 83 77 65 30 38 75 77 47 58 71 91 72 88
5 7 90 99 93 75 72 79 84 54 68 79 82 84 82 76 68 69 68 77 72 63 57 72 76 57 59 72 70 57 62 78 73 68 99 96 97 68 98 86 96 100 97
6 5 8 67 96 99 99 99 99 98 98 97 87 80 83 79 73 74 94 91 74 64 64 67 72 93 72 86 75 76 100 97 91 79 91 100 100 91 90 99 100 100 100
7 6 5 5 13 64 95 98 100 100 99 98 99 99 99 97 93 99 97 98 99 100 72 99 96 92 98 94 93 99 99 99 100 100 100 100 100 99 100 100 100 100 100
8 8 6 6 5 4 5 8 32 62 75 93 100 100 99 100 100 100 99 99 96 94 98 99 99 99 100 100 100 100 100 100 100 100 100 100 100 100 100 100 100 100 99
7 8 8 7 7 6 5 4 4 4 4 10 32 65 95 100 100 100 100 100 100 100 100 100 100 100 100 100 100 100 100 100 100 100 99 98 99 100 100 99 98 98 96
8 7 8 8 8 8 7 7 6 5 4 3 3 4 11 62 98 100 100 100 100 100 100 100 100 100 100 100 100 100 100 98 94 94 92 88 88 88 86 85 82 82 76
14 11 9 8 8 8 8 8 8 8 7 5 4 3 3 3 4 20 57 84 93 99 100 99 98 96 94 95 93 87 89 88 82 73 55 28 12 6 5 4 3 3 3
20 18 13 10 9 8 9 8 9 9 8 7 6 5 4 3 3 3 3 3 4 7 11 17 21 23 26 26 15 8 5 5 5 5 5 5 4 3 3 3 4 4 5
18 20 21 18 13 10 9 9 9 9 9 9 9 6 5 4 4 3 4 5 5 6 5 5 6 6 6 6 7 7 8 8 7 5 4 3 3 4 7 9 10 14 15
15 19 23 24 21 16 12 9 8 8 10 10 9 8 7 6 4 4 5 5 7 9 10 10 10 10 10 10 10 9 8 6 5 4 4 6 10 13 14 17 19 20 21
17 16 18 22 25 24 18 12 10 9 8 8 9 9 9 8 7 6 5 7 8 9 10 11 11 11 11 10 10 10 7 7 8 9 10 12 17 21 23 22 24 27 32
21 22 20 21 24 26 26 21 14 9 8 7 7 7 6 7 7 7 6 6 8 10 11 12 12 12 12 12 12 11 9 11 13 15 16 19 24 28 29 29 32 40 46
26 29 30 29 25 25 27 26 20 13 7 6 6 6 6 6 6 7 7 8 8 9 10 12 14 15 16 17 17 12 10 14 16 19 22 26 33 37 38 39 41 44 54
29 32 40 43 42 34 29 27 21 12 7 5 5 6 6 6 6 8 10 12 13 14 15 16 17 18 19 19 20 12 12 16 21 26 30 35 40 42 44 45 48 53 55
30 41 48 55 59 57 46 31 25 17 8 6 6 6 6 6 7 10 14 18 20 22 22 22 22 22 22 24 23 16 15 21 28 33 38 42 45 47 48 51 52 53 57
40 48 65 79 83 80 71 50 28 18 10 7 6 7 7 6 8 14 18 21 23 25 27 28 28 27 26 26 27 24 21 26 32 35 42 45 51 53 56 58 61 57 58
46 51 58 96 96 97 95 75 36 17 11 8 8 8 8 8 12 18 24 25 28 30 32 33 34 33 32 32 33 33 30 30 32 39 44 48 56 63 66 72 77 72 61
29 45 64 78 100 100 100 100 61 21 12 10 9 10 10 10 17 23 28 31 32 35 38 40 42 42 41 40 39 40 40 38 38 41 48 56 62 68 73 77 80 81 79
18 27 41 65 95 100 98 97 94 34 13 12 11 12 13 17 27 32 36 38 39 40 44 47 49 48 48 46 45 45 46 47 47 48 54 63 70 74 76 78 78 79 81
Wind_Speed
40 35 29 34 34 25 30 30 30 28 27 32 37 32 32 31 34 35 34 38 41 42 47 51 51 48 48 47 47 49 49 49 50 45 45 48 47 45 47 39 40 46 41
42 40 31 28 26 25 24 25 24 21 20 21 29 27 26 28 30 29 31 33 35 37 40 45 46 47 46 46 46 46 43 38 42 45 37 35 43 40 49 43 39 41 46
43 45 32 18 22 15 16 19 17 16 15 20 31 23 21 22 23 25 28 30 31 32 33 39 43 42 43 42 43 43 41 39 41 40 39 32 34 32 38 40 42 40 38
45 40 18 6 12 10 9 12 13 10 11 16 19 20 19 16 15 18 20 23 25 30 30 34 35 36 36 36 35 35 36 40 44 45 47 43 42 35 36 36 31 32 34
40 36 9 6 7 5 5 7 9 8 11 13 15 15 18 18 21 22 21 22 22 23 25 27 28 30 31 31 32 32 33 36 39 42 43 42 42 41 37 40 35 37 34
35 38 24 9 14 13 7 8 7 8 10 15 19 20 21 23 25 23 22 23 22 23 25 25 25 27 29 30 31 31 32 33 36 36 38 40 40 41 36 39 36 40 44
34 35 26 19 9 7 12 10 10 10 12 15 17 19 21 23 24 24 24 24 25 26 28 27 28 30 31 33 34 35 35 31 33 32 35 34 35 35 37 36 42 39 47
30 28 28 23 15 9 9 9 13 15 18 19 20 22 23 25 25 25 25 27 29 29 29 28 29 28 27 26 28 30 29 32 37 34 31 37 39 36 38 35 40 42 40
25 25 20 19 23 23 19 14 11 15 18 19 18 21 22 23 27 28 27 31 31 29 30 31 31 28 29 25 28 32 27 31 32 33 36 41 29 31 30 39 37 41 46
22 23 22 19 16 15 15 19 20 22 20 15 9 8 14 25 31 25 33 28 27 27 31 30 29 30 27 29 31 26 29 31 23 26 33 34 36 40 38 43 38 37 43
20 20 22 22 20 18 16 15 15 15 17 19 19 16 14 12 11 8 8 15 29 31 31 30 28 25 22 23 23 20 18 17 20 23 24 24 28 33 34 38 43 45 49
21 20 19 20 21 21 19 17 16 15 14 13 12 13 11 10 8 5 2 6 14 15 17 17 15 12 16 20 22 21 20 23 27 27 32 34 40 38 40 43 46 49 53
23 22 20 19 20 21 20 19 18 17 14 13 11 10 9 7 7 5 2 4 7 10 12 14 15 17 18 20 22 24 26 29 31 36 40 42 42 44 47 51 53 58 61
20 21 21 22 23 23 23 22 21 20 18 17 15 14 11 10 11 14 15 17 19 20 22 23 24 26 28 29 31 34 36 38 40 42 43 42 41 40 41 43 45 46 48
22 22 22 20 19 20 23 24 25 24 22 21 19 17 16 14 13 13 14 17 20 22 24 25 26 27 28 28 29 29 29 29 29 30 30 32 33 33 33 34 35 37 39
20 21 22 22 21 21 20 20 22 24 25 26 25 23 20 17 16 15 14 13 14 16 17 18 19 20 21 22 22 23 24 25 26 27 28 29 29 27 27 30 34 36 37
21 21 21 21 22 21 21 22 22 22 21 22 24 25 24 23 20 17 15 15 15 15 15 16 17 18 19 20 21 21 21 21 22 24 25 23 24 26 29 30 32 32 30
23 22 22 22 23 23 22 22 22 23 22 21 21 21 22 24 24 22 19 16 15 15 16 17 18 19 20 20 20 19 19 19 20 21 21 23 25 26 28 30 32 32 32
26 25 24 23 23 24 24 24 24 24 24 24 23 21 20 20 20 22 22 20 19 18 18 18 18 19 20 19 18 18 18 19 19 20 21 21 23 25 27 31 33 33 34
29 27 27 26 25 25 25 24 24 25 26 27 26 25 24 21 19 19 19 19 19 19 18 18 18 18 18 18 19 19 19 18 18 19 19 20 21 24 28 31 32 33 33
32 30 28 27 26 26 26 25 25 25 25 26 27 27 26 24 23 20 18 18 17 18 18 17 17 17 18 19 19 18 18 18 18 18 18 18 20 22 25 29 30 30 31
33 32 30 29 27 25 26 25 26 25 25 25 26 26 26 24 22 21 19 18 17 17 17 17 17 16 16 17 17 18 18 17 16 16 16 18 18 21 24 26 27 28 28
32 32 31 28 27 26 26 26 26 26 26 25 25 26 25 24 22 20 19 18 18 17 17 17 16 16 16 16 16 17 17 16 15 15 16 16 17 19 22 24 25 28 28
27 28 29 30 28 26 26 27 27 26 26 25 25 25 25 23 22 20 19 18 17 17 17 16 16 16 16 14 14 15 15 16 16 16 16 16 16 17 19 21 23 25 26
27 27 27 28 30 30 30 29 28 26 25 24 25 25 24 23 21 19 18 17 16 15 15 16 15 15 15 14 13 13 14 14 14 15 16 15 15 16 17 18 19 20 22
28 29 30 30 31 32 32 36 32 29 26 24 23 24 24 22 20 18 17 16 15 14 14 14 14 14 14 13 13 12 12 13 13 14 14 15 14 14 14 15 15 16 16
Wind_Direction
333 326 294 265 275 276 282 290 289 277 266 247 237 227 230 225 231 236 235 232 233 233 235 237 240 244 246 248 249 250 255 257 261 263 270 266 265 264 258 264 251 253 249
341 327 303 267 260 267 286 295 292 275 265 244 220 217 223 217 226 231 230 234 233 234 235 237 239 241 243 247 249 250 255 255 261 265 273 268 266 270 264 252 258 267 274
352 343 331 278 238 271 284 296 286 268 262 245 231 231 212 219 222 226 228 231 233 234 233 236 237 240 240 243 247 251 253 254 255 250 268 265 262 275 265 262 259 270 271
360 355 357 225 227 253 279 293 273 253 240 240 228 219 206 216 230 234 244 243 235 237 237 237 240 245 249 250 252 254 254 251 251 259 266 273 272 272 265 263 262 264 274
5 3 350 300 295 271 279 278 259 231 206 200 203 206 212 227 234 234 240 241 233 235 235 238 241 242 243 243 246 246 251 253 257 258 265 269 270 269 262 271 268 269 266
3 10 6 321 278 300 289 268 233 227 221 207 210 215 226 232 236 235 229 229 235 241 240 232 230 232 234 237 241 244 246 249 251 257 263 266 268 270 268 263 271 259 258
3 12 13 14 356 298 300 281 269 257 246 239 240 241 240 236 232 233 237 238 243 243 236 236 239 235 232 233 236 242 248 252 258 259 264 271 269 266 266 263 264 265 266
4 7 18 20 15 351 330 299 278 267 259 255 254 254 252 250 245 241 236 239 238 241 240 237 242 241 242 247 247 243 248 252 249 254 256 264 273 272 261 272 278 280 273
6 3 8 14 16 17 12 1 307 280 269 256 247 236 242 248 244 236 235 240 236 233 233 239 236 232 241 248 247 236 256 249 252 249 262 263 259 265 255 277 276 278 276
1 2 3 5 1 6 7 2 6 10 12 32 19 306 258 238 243 248 231 223 229 243 238 236 254 236 238 247 241 248 253 257 266 250 270 265 259 267 270 268 273 275 276
353 2 360 0 360 359 357 350 351 347 353 359 5 23 35 53 89 91 136 210 224 230 234 245 251 244 245 250 256 255 241 246 244 262 257 260 269 269 272 272 275 275 270
344 350 356 357 354 355 358 354 352 350 344 341 340 345 2 20 31 52 114 184 201 225 235 250 235 241 249 259 258 251 263 262 255 261 271 268 273 275 277 280 280 282 282
340 342 345 350 351 351 352 353 351 349 347 339 329 317 307 301 299 308 274 233 231 240 244 257 260 261 265 269 269 269 273 274 277 273 275 278 278 277 275 275 276 276 276
334 336 338 340 345 346 345 346 347 347 346 345 339 328 312 291 276 267 266 260 258 261 263 264 267 269 268 270 272 271 271 272 274 276 277 278 278 277 278 279 279 280 282
327 329 330 332 337 339 340 341 339 340 341 339 337 333 326 316 302 283 268 265 266 267 270 271 272 273 273 273 274 276 277 278 280 283 286 287 286 285 284 284 287 292 296
311 315 320 322 326 330 332 333 332 334 335 334 333 332 326 318 311 304 294 284 277 273 272 274 276 276 277 280 282 283 284 284 283 284 286 288 291 295 301 303 301 299 299
299 303 307 310 314 317 321 324 326 326 326 326 327 326 323 318 312 303 295 291 288 282 278 276 276 277 277 276 274 274 278 284 289 293 295 296 301 301 303 306 306 303 301
289 291 294 299 303 305 309 312 313 315 317 318 318 316 315 313 309 305 300 294 288 286 283 281 279 278 275 274 277 283 288 295 301 298 291 294 302 310 314 316 316 311 308
285 287 288 289 292 296 298 301 304 306 307 309 310 308 305 303 302 301 298 294 290 285 282 279 277 275 275 276 280 287 287 288 292 294 294 301 310 318 325 329 326 322 317
282 282 284 286 287 288 290 293 296 299 302 304 304 303 302 298 293 292 290 289 287 285 284 285 284 283 283 282 280 279 276 289 300 297 298 307 318 327 336 334 331 329 327
279 278 278 280 281 283 285 288 291 293 295 297 298 298 297 294 291 287 285 285 286 288 289 288 287 285 280 276 277 279 278 289 296 297 304 315 324 334 338 339 339 338 330
274 273 274 275 279 281 283 284 284 286 287 287 288 288 287 286 284 283 282 281 281 283 284 285 287 290 291 286 283 278 273 285 297 305 310 315 326 334 339 344 348 345 338
276 273 272 274 277 279 281 280 280 281 281 282 282 282 281 280 278 275 274 275 277 280 282 284 287 288 289 286 281 279 275 281 295 306 310 316 326 333 338 345 351 351 348
291 290 282 277 276 274 273 273 275 278 280 280 279 277 275 273 271 270 270 271 274 277 278 280 282 285 286 291 292 289 286 284 291 301 310 319 325 331 335 342 348 351 355
293 290 283 276 269 273 272 272 271 271 274 277 278 276 273 271 270 270 271 273 275 278 281 283 284 285 286 289 293 296 295 295 297 301 306 314 321 326 331 336 343 348 353
295 294 289 278 265 268 275 275 263 264 264 267 271 272 272 270 269 271 274 276 277 278 280 281 282 285 286 288 291 297 302 303 302 302 305 309 314 320 325 329 338 341 350